Weather History for Worland, WY

Change the Weather History Date:

Thursday, June 20, 2013

  Actual Average Record
Temperature  
Mean Temperature 67 °F 66 °F  
Max Temperature 85 °F 82 °F 103 °F (1988)
Min Temperature 49 °F 50 °F 40 °F (1978)
Degree Days  
Heating Degree Days 0 2  
Month to date heating degree days 40 78  
Since 1 June heating degree days 40 78  
Since 1 July heating degree days 7461 7854  
Cooling Degree Days 2 3  
Month to date cooling degree days 56 40  
Year to date cooling degree days 73 52  
Since 1 June cooling degree days 56 40  
Growing Degree Days 18 (Base 50)    
Moisture  
Dew Point 22 °F    
Average Humidity 23    
Maximum Humidity 38    
Minimum Humidity 7    
Precipitation  
Precipitation 0.00 in 0.03 in 0.11 in (2004)
Month to date precipitation 0.07 0.88  
Year to date precipitation 2.76 4.04  
Sea Level Pressure  
Sea Level Pressure 29.73 in    
Wind  
Wind Speed 8 mph (West)    
Max Wind Speed 23 mph    
Max Gust Speed 36 mph    
Visibility 10 miles    
Events      
T = Trace of Precipitation, MM = Missing Value Source: NWS Daily Summary

Daily Weather History Graph

Daily Weather History Graph

Search for Another Location

Airport:

Trip Planner

Search our weather history database for the weather conditions in past years. The results will help you decide how hot, cold, wet, or windy it might be!

Date:

Astronomy

Jun. 20, 2013 Rise Set
Actual Time 5:28 AM MDT 8:57 PM MDT
Civil Twilight 4:52 AM MDT 9:34 PM MDT
Nautical Twilight 4:04 AM MDT 10:22 PM MDT
Astronomical Twilight 3:03 AM MDT 11:23 PM MDT
Moon 6:00 PM MDT (6/20) 3:02 AM MDT (6/20)
Length of Visible Light 16h 41m
Length of Day
15h 29m
Waxing Gibbous, 89% of the Moon is Illuminated
Jun 20
Waxing Gibbous
Jun 23
Full
Jun 29
Last Quarter
Jul 8
New
Jul 15
First Quarter

Hourly Weather History & Observations

Time (MDT) Temp. Dew Point Humidity Pressure Visibility Wind Dir Wind Speed Gust Speed Precip Events Conditions
12:53 AM 70.0 °F 15.1 °F 12% 29.61 in 10.0 mi WSW 13.8 mph - N/A   Clear
1:53 AM 66.9 °F 12.9 °F 12% 29.62 in 10.0 mi SSW 5.8 mph - N/A   Clear
2:53 AM 61.0 °F 28.9 °F 30% 29.66 in 10.0 mi NNE 15.0 mph - N/A   Clear
3:53 AM 57.0 °F 28.9 °F 34% 29.70 in 10.0 mi NNE 4.6 mph - N/A   Clear
4:53 AM 54.0 °F 28.0 °F 37% 29.74 in 10.0 mi Calm Calm - N/A   Clear
5:53 AM 51.1 °F 27.0 °F 39% 29.75 in 10.0 mi ENE 3.5 mph - N/A   Clear
6:53 AM 55.0 °F 30.9 °F 40% 29.78 in 10.0 mi Calm Calm - N/A   Clear
7:53 AM 60.1 °F 24.1 °F 25% 29.81 in 10.0 mi Calm Calm - N/A   Clear
8:53 AM 63.0 °F 25.0 °F 24% 29.81 in 10.0 mi Variable 3.5 mph - N/A   Clear
9:53 AM 66.0 °F 26.1 °F 22% 29.81 in 10.0 mi North 8.1 mph - N/A   Clear
10:53 AM 71.1 °F 25.0 °F 18% 29.78 in 10.0 mi NNE 9.2 mph - N/A   Clear
11:53 AM 73.0 °F 15.1 °F 11% 29.77 in 10.0 mi South 5.8 mph - N/A   Clear
12:53 PM 80.1 °F 12.0 °F 8% 29.73 in 10.0 mi SW 12.7 mph 18.4 mph N/A   Clear
1:53 PM 78.1 °F 10.9 °F 8% 29.72 in 10.0 mi SSW 12.7 mph 35.7 mph N/A   Clear
2:53 PM 81.0 °F 12.0 °F 7% 29.73 in 10.0 mi SSW 12.7 mph 21.9 mph N/A   Clear
3:53 PM 82.0 °F 12.0 °F 7% 29.71 in 10.0 mi South 6.9 mph - N/A   Clear
4:53 PM 82.0 °F 14.0 °F 8% 29.71 in 10.0 mi SW 13.8 mph 24.2 mph N/A   Clear
5:53 PM 84.0 °F 17.1 °F 8% 29.71 in 10.0 mi SW 11.5 mph 20.7 mph N/A   Clear
6:53 PM 81.0 °F 16.0 °F 9% 29.72 in 10.0 mi West 15.0 mph 19.6 mph N/A   Clear
7:53 PM 80.1 °F 19.0 °F 10% 29.71 in 10.0 mi NNW 6.9 mph - N/A   Clear
8:53 PM 72.0 °F 28.0 °F 20% 29.73 in 10.0 mi NNE 8.1 mph - N/A   Clear
9:53 PM 69.1 °F 28.9 °F 22% 29.76 in 10.0 mi NW 4.6 mph - N/A   Clear
10:53 PM 68.0 °F 35.1 °F 30% 29.77 in 10.0 mi NW 11.5 mph 17.3 mph N/A   Clear
11:53 PM 64.9 °F 33.1 °F 31% 29.80 in 10.0 mi NW 16.1 mph 25.3 mph N/A   Clear